Weather in Selenduma

Russia / Republic of Buryatia     50°55′02″N   106°14′09″E
temp.,
°C
wind,
m/s
gust,
m/s
humid.,
%
clouds,
%
prec.,
mm/h
press.,
hPa
HPBL,
m
10 may, mon
mon1023:00+8nnw2274100 0.2 100884
02:00+6n3581100 0.6 1009281
05:00+6n2481100 0.0 1010401
08:00+7n4661100 0.0 1011869
11:00+8n5657100 0.0 10111129
14:00+10n884598 0.0 10111813
17:00+9n7949100 0.0 10121459
20:00+5n5968100 0.0 1014927
11 may, tue
tue1123:00+3n117863 0.0 101552
02:00+4nw147099 0.0 1015242
05:00+4wnw237888 0.0 1016143
08:00+6nnw2664100 0.0 1017841
11:00+10n685124 0.0 10161488
14:00+11n784527 0.1 10161771
17:00+12n56414 0.0 10151537
20:00+9n22543 0.0 101545
12 may, wed
wed1223:00+6nw22645 0.0 101612
02:00+4w11701 0.0 101611
05:00+3w11710 0.0 101511
08:00+8sw125111 0.0 1013346
11:00+13ssw233588 0.0 10101336
14:00+14wnw443997 0.1 10071712
17:00+13n783999 0.1 10071078
20:00+8n61161100 0.1 1010810
13 may, thu
thu1323:00+7nne3762100 0.1 1012780
02:00+5n3681100 0.4 1012515
05:00+4n2475100 0.4 1012270
08:00+6n6853100 0.4 10111161
11:00+8n91037100 0.0 10111930
14:00+8n91130100 0.0 10112163
17:00+8n81029100 0.0 10112325
20:00+6nnw58400 0.0 1013437
14 may, fri
fri1423:00+3wnw35650 0.0 101586
02:00+1w227296 0.0 101629
05:000w22704 0.0 101717
08:00+4wnw365489 0.0 1017804
11:00+8nnw5842100 0.3 10161859
14:00+11nnw7830100 0.6 10142649
17:00+11nw672715 0.0 10132360
20:00+8n22370 0.0 101211